Regional Weather Roundup
Issued by NWS

Home | Current Version | Previous Version | Graphics & Text | Print | Product List | Glossary On
Versions: 1 2 3 4 5 6 7 8 9 10 11 12 13 14 15 16 17 18 19 20 21 22 23 24 25 26 27 28 29 30 31 32 33 34 35 36 37 38 39 40 41 42 43 44 45 46 47 48 49 50
000
ASUS45 KTFX 051810
RWRMT
MONTANA REGIONAL WEATHER ROUNDUP
NATIONAL WEATHER SERVICE GREAT FALLS MT
1100 AM MST FRI FEB 05 2016

NOTE: "FAIR" INDICATES FEW OR NO CLOUDS BELOW 12000 FEET WITH NO
SIGNIFICANT WEATHER AND/OR OBSTRUCTIONS TO VISIBILITY.

MTZ001>007-043-051900-
WEST OF THE DIVIDE

CITY           SKY/WX    TMP DP  RH WIND       PRES   REMARKS
KALISPELL      CLOUDY    33  28  81 SW5       30.36S
MISSOULA       CLOUDY    31  27  85 CALM      30.43S
BUTTE          CLOUDY    25  16  68 N5        30.35F
MULLAN PASS    HAZE      30  25  81 VRB3      30.31R VSB 1/4
ANACONDA         N/A     37  19  48 S10       30.35F WCI  30
DEER LODGE       N/A     30  21  69 NE5       30.36F
HAMILTON         N/A     37  25  60 S8        30.40S WCI  31
LIBBY            N/A     34  27  75 CALM      30.37
$$

MTZ008-052>055-051900-
SOUTHWEST MONTANA

CITY           SKY/WX    TMP DP  RH WIND       PRES   REMARKS
BOZEMAN        CLOUDY    23  15  71 S3        30.38F
DILLON         CLOUDY    28  18  66 S17       30.38S WCI  16
ENNIS          SUNNY     28  14  54 S17G25    30.45R WCI  16
$$

MTZ009-010-012-014-046-048-049-054-051900-
EAST SLOPES AND CENTRAL MONTANA

CITY           SKY/WX    TMP DP  RH WIND       PRES   REMARKS
CUT BANK       PTSUNNY   42  22  44 W31G41    30.05F
GREAT FALLS    CLOUDY    42  22  44 SW26      30.15F
MALMSTROM AFB  CLOUDY    41  23  48 SW28G35   30.17F
HELENA         CLOUDY    39  24  55 W8        30.31F
CHOTEAU          N/A     48  19  32 W24G37    30.10S
$$

MTZ011-013-016-021-045-047-050-051-051900-
NORTH CENTRAL MONTANA

CITY           SKY/WX    TMP DP  RH WIND       PRES   REMARKS
HAVRE          CLOUDY    40  26  57 SW23G31   30.09F
LEWISTOWN      SUNNY     36  23  59 SW17      30.16S WCI  26
N BAR RANCH      N/A     39  19  45 W7        30.17S
CHINOOK          N/A     45  21  39 SW21      30.09F
$$

MTZ017>020-022>027-061-062-051900-
NORTHEAST MONTANA

CITY           SKY/WX    TMP DP  RH WIND       PRES   REMARKS
GLASGOW        CLOUDY    24  21  88 SE3       30.14F
JORDAN           N/A     36  24  62 W10       30.17S WCI  28
SIDNEY         SUNNY     34  27  75 SW9       30.18S WCI  26
WOLF POINT     SUNNY     27  22  81 S3        30.16F
PLENTYWOOD       N/A     23  18  80 E3        30.12F
POPLAR           N/A     25  21  86 W8        30.18S WCI  16
$$

MTZ028>42-056>058-051900-
SOUTHCENTRAL AND SOUTHEAST MONTANA

CITY           SKY/WX    TMP DP  RH WIND       PRES   REMARKS
BAKER          SUNNY     36  23  59 W10       30.19S WCI  28
BILLINGS       MOSUNNY   37  15  40 SW18      30.23F WCI  27
LIVINGSTON     CLOUDY    36  13  38 W23G37    30.30S WCI  24
MILES CITY     SUNNY     37  26  64 W12       30.21F WCI  29
FORSYTH          N/A     39  19  45 W10       30.21F
$$

REGIONAL REPORTS...DAKOTAS

CITY           SKY/WX    TMP DP  RH WIND       PRES   REMARKS
WILLISTON      SUNNY     29  23  78 SW7       30.16S WCI  22
MINOT          CLOUDY    30  14  51 SW13      30.13F WCI  20
DICKINSON      SUNNY     31  23  72 W17       30.13F WCI  19
BEACH            N/A     32  27  80 W13       30.20S WCI  22
CROSBY           N/A     28  21  74 SW10      30.14S WCI  19
TIOGA            N/A     25  25 100 W17G23    30.16S WCI  11
WATFORD CITY     N/A     30  25  80 W13G20    30.16S WCI  20
BISMARCK       SUNNY     36  19  50 NW7       30.19S WCI  30
GRAND FORKS    MOSUNNY   23  15  71 NW7       30.15S WCI  15
FARGO          SUNNY     26  21  81 S10       30.15R WCI  16
BUFFALO SD       N/A     35  24  64 W23       30.13S WCI  23
RAPID CITY     SUNNY     36  24  62 NW23      30.22S WCI  24
$$

REGIONAL REPORTS...WYOMING/IDAHO/WASHINGTON

CITY           SKY/WX    TMP DP  RH WIND       PRES   REMARKS
GILLETTE       SUNNY     33  19  56 W14       30.24F WCI  23
SHERIDAN       MOSUNNY   37  14  38 E2        30.23F
BUFFALO WY     SUNNY     34  13  41 S9        30.24S WCI  27
CODY           SUNNY     37  10  32 W16G24    30.24F WCI  28
YELLOWSTONE LA   N/A     16  10  77 CALM      30.39S
IDAHO FALLS    CLOUDY    18  15  88 N7        30.56R FOG     WCI   9
SALMON         CLOUDY    19  14  79 CALM      30.53R
BOISE          FOG       30  30 100 CALM      30.55R VSB<1/4
SPOKANE        PTSUNNY   40  34  79 SE9       30.34F
$$

REGIONAL REPORTS...ALBERTA

CITY           SKY/WX    TMP DP  RH WIND       PRES   REMARKS
EDMONTON       MOSUNNY   30  19  64 SW6       29.78F WCI  24
CALGARY        PTSUNNY   46  19  34 NW10      29.90S
LETHBRIDGE     PTSUNNY   45  23  42 W37G48    29.98F
MEDICINE HAT   PTSUNNY   37  27  65 SW10      30.00F WCI  30
WATERTON GATE    N/A     41  21  45 SW32G46     N/A
MILK RIVER       N/A     43  23  45 W26G33      N/A
$$

REGIONAL REPORTS...SASKATCHEWAN

CITY           SKY/WX    TMP DP  RH WIND       PRES   REMARKS
SWIFT CURRENT  SUNNY     34  25  69 W13       29.98F WCI  25
REGINA         MOSUNNY   23  18  80 S6        30.05F WCI  16
SASKATOON      MOSUNNY   16  14  93 S7        30.01F WCI   6
CYPRESS HILLS    N/A     34  19  55 SW7         N/A  WCI  28
VAL MARIE        N/A     28  25  86 SW7         N/A  WCI  21
ASSINIBOIA       N/A     21  14  73 S10         N/A  WCI  10
$$



USA.gov is the U.S. government's official web portal to all federal, state and local government web resources and services.